sat.trackr.live / text

‹ back to catalog

STARLINK-37537

NORAD 69420 · 2026-126A

PAYLOAD ACTIVE UNKNOWN

§ Identity

Operator
Country
US
Launch date
2026-06-07
Launch site
AFWTR
Launch vehicle
Mass (kg)
RCS (m²)

Purposes: comms

External: N2YO · Heavens-Above · Gunter

§ Orbital elements

Epoch: 2026-09-19T08:56:50.928288Z

Period
93.91 min
Inclination
97.2861°
Eccentricity
0.0002416
Mean motion
15.33443408 rev/d
Perigee alt
463.9 km
Apogee alt
467.2 km
Semi-major
6,843.7 km
B*
3.7494e-4
RAAN
123.6526°
Arg perigee
91.6232°
Mean anomaly
268.5287°
Rev number
1,735

§ Raw data

STARLINK-375371 69420U 26126A   26262.37281167  .00012049  00000+0  37494-3 0  99962 69420  97.2861 123.6526 0002416  91.6232 268.5287 15.33443408 17356

JSON: /api/v1/satellites/69420 · /tle

For live sub-satellite position, see the globe view (requires WebGL).

§ Visibility from observer

Set your observer location to see the next 7 days of passes ≥ 10°. The values pass through the URL so the page stays shareable.

No JS? Fill the form by hand. The geolocation button needs JavaScript.